Terminal Aerodrome Forecast
Issued by NWS Duluth, MN

Home | Current Version | Previous Version | Text Only | Print | Product List | Glossary On
Versions: 1 2 3 4 5 6 7 8 9 10 11 12 13 14 15 16 17 18 19 20 21 22 23 24 25 26 27 28
000
FTUS43 KDLH 131700
TAFINL
TAF
KINL 131740Z 1318/1418 22012G18KT P6SM BKN050
     FM140100 17009KT P6SM SCT060 BKN110
     FM140600 18008KT P6SM VCSH BKN040 OVC060
     FM140900 22005KT 5SM -SHRA BR OVC028
     FM141500 28010G16KT P6SM VCSH OVC025=

USA.gov is the U.S. government's official web portal to all federal, state and local government web resources and services.